Location: Olsztyn
(53.7767°N, 20.4765°E)
Time: 20:51:57
(UTC+01:00)

Vanguard 1 Rocket - All Passes

Search period start: 25 January 2022 00:00
Search period end: 04 February 2022 00:00
Orbit: 651 x 4224 km, 34.3° (Epoch: 24 January)

Date Brightness Start Highest point End Pass type
(mag) Time Alt. Az. Time Alt. Az. Time Alt. Az.
25 Jan - 09:16:04 10° S 09:29:02 17° SE 09:39:59 10° ESE daylight
25 Jan - 11:37:10 10° SSW 11:56:14 32° SSE 12:09:10 10° ESE daylight
25 Jan - 14:05:53 10° WSW 14:23:11 35° S 14:33:32 10° SE daylight
25 Jan - 16:37:35 10° WSW 16:48:00 22° SW 16:54:55 10° SSE visible
26 Jan - 08:13:11 10° SE 08:16:39 10° SE 08:20:00 10° ESE daylight
26 Jan - 10:24:52 10° SSW 10:43:21 27° SSE 10:57:10 10° ESE daylight
26 Jan - 12:51:23 10° SW 13:10:51 37° S 13:22:59 10° ESE daylight
26 Jan - 15:22:14 10° WSW 15:36:53 30° SSW 15:45:49 10° SSE daylight
26 Jan - 17:57:20 10° WSW 18:00:15 11° SW 18:02:49 10° SW visible
27 Jan - 09:14:16 10° S 09:30:29 22° SE 09:43:58 10° ESE daylight
27 Jan - 11:37:35 10° SW 11:58:02 35° SSE 12:11:51 10° ESE daylight
27 Jan - 14:07:07 10° WSW 14:25:07 36° SSW 14:35:57 10° SE daylight
27 Jan - 16:39:36 10° WSW 16:49:46 20° SW 16:56:43 10° S visible
28 Jan - 08:06:34 10° SSE 08:17:54 15° SE 08:28:18 10° ESE daylight
28 Jan - 10:24:48 10° SSW 10:44:58 32° SSE 11:00:02 10° ESE daylight
28 Jan - 12:52:22 10° WSW 13:12:43 39° S 13:25:29 10° ESE daylight
28 Jan - 15:23:50 10° WSW 15:38:43 29° SSW 15:47:57 10° SSE daylight
29 Jan - 09:13:26 10° SSW 09:31:54 26° SE 09:47:14 10° E daylight
29 Jan - 11:38:17 10° SW 11:59:48 39° S 12:14:25 10° ESE daylight
29 Jan - 14:08:28 10° WSW 14:26:58 36° SSW 14:38:15 10° SE daylight
29 Jan - 16:41:50 10° W 16:51:24 18° SW 16:58:14 10° S visible
30 Jan - 08:04:07 10° S 08:19:06 19° SE 08:32:47 10° E daylight
30 Jan - 10:25:09 10° SW 10:46:33 36° SSE 11:02:41 10° ESE daylight
30 Jan - 12:53:31 10° WSW 13:14:32 40° S 13:27:52 10° ESE daylight
30 Jan - 15:25:32 10° W 15:40:24 27° SSW 15:49:56 10° SSE daylight
31 Jan - 06:59:24 10° SE 07:06:48 12° SE 07:14:04 10° ESE daylight
31 Jan - 09:13:16 10° SSW 09:33:16 30° SSE 09:50:06 10° E daylight
31 Jan - 11:39:13 10° SW 12:01:30 41° S 12:16:51 10° ESE daylight
31 Jan - 14:09:55 10° WSW 14:28:42 35° SSW 14:40:25 10° SE daylight
31 Jan - 16:44:24 10° W 16:52:54 16° SW 16:59:19 10° SSW visible
01 Feb - 08:03:02 10° S 08:20:16 24° SE 08:36:15 10° E daylight
01 Feb - 10:25:51 10° SW 10:48:06 39° SSE 11:05:10 10° ESE daylight
01 Feb - 12:54:49 10° WSW 13:16:14 40° S 13:30:08 10° SE daylight
01 Feb - 15:27:23 10° W 15:41:58 25° SW 15:51:40 10° S daylight
02 Feb - 06:55:27 10° SSE 07:07:46 16° SE 07:20:00 10° E daylight
02 Feb - 09:13:36 10° SSW 09:34:38 34° SSE 09:52:42 10° E daylight
02 Feb - 11:40:23 10° WSW 12:03:09 43° S 12:19:10 10° ESE daylight
02 Feb - 14:11:29 10° W 14:30:19 34° SSW 14:42:25 10° SSE daylight
02 Feb - 16:47:34 10° WSW 16:54:14 13° SW 16:59:39 10° SSW visible
03 Feb - 08:02:45 10° S 08:21:25 28° SE 08:39:10 10° E daylight
03 Feb - 10:26:49 10° SW 10:49:37 42° S 11:07:31 10° ESE daylight
03 Feb - 12:56:14 10° WSW 13:17:53 40° SSW 13:32:17 10° SE daylight
03 Feb - 15:29:24 10° W 15:43:23 23° SW 15:53:06 10° S daylight
